Weather History for Kingston, Jamaica

Change the Weather History Date:

Sunday, September 22, 2013

  Actual Average Record
Temperature  
Mean Temperature 86 °F -  
Max Temperature 92 °F 87 °F 92 °F (2012)
Min Temperature 79 °F 78 °F 75 °F (2002)
Cooling Degree Days 20    
Growing Degree Days 36 (Base 50)    
Moisture  
Dew Point 77 °F    
Average Humidity 76    
Maximum Humidity 89    
Minimum Humidity 65    
Precipitation  
Precipitation 0.00 in - - ()
Sea Level Pressure  
Sea Level Pressure 29.84 in    
Wind  
Wind Speed 8 mph ()    
Max Wind Speed 22 mph    
Max Gust Speed -    
Visibility 7.6 miles    
Events Thunderstorm    
Averages and records for this station are not official NWS values.
T = Trace of Precipitation, MM = Missing Value Source: Averaged Metar Reports

Daily Weather History Graph

Daily Weather History Graph

Search for Another Location

Airport:

Trip Planner

Search our weather history database for the weather conditions in past years. The results will help you decide how hot, cold, wet, or windy it might be!

Date:

Astronomy

Sep. 22, 2013 Rise Set
Actual Time 5:56 AM EST 6:03 PM EST
Civil Twilight 5:34 AM EST 6:24 PM EST
Nautical Twilight 5:09 AM EST 6:50 PM EST
Astronomical Twilight 4:43 AM EST 7:15 PM EST
Moon 8:26 PM EST (9/22) 8:41 AM EST (9/22)
Length of Visible Light 12h 50m
Length of Day
12h 06m
Waning Gibbous, 88% of the Moon is Illuminated
Sep 22
Waning Gibbous
Sep 26
Last Quarter
Oct 4
New
Oct 11
First Quarter
Oct 18
Full

Hourly Weather History & Observations

Time (EST) Temp. Heat Index Dew Point Humidity Pressure Visibility Wind Dir Wind Speed Gust Speed Precip Events Conditions
12:00 AM 82.4 °F 89.5 °F 75.2 °F 79% 29.83 in 6.2 mi SSE 3.5 mph - N/A   Partly Cloudy
1:00 AM 81 °F - 78 °F 86% 29.84 in 12 mi SE 4.6 mph - -   Haze
1:00 AM 80.6 °F 87.1 °F 77.0 °F 89% 29.83 in 6.2 mi SE 4.6 mph - N/A   Partly Cloudy
2:00 AM 82.4 °F 89.5 °F 75.2 °F 79% 29.80 in 6.2 mi East 4.6 mph - N/A Thunderstorm Partly Cloudy
3:00 AM 80.6 °F 86.2 °F 75.2 °F 84% 29.80 in 6.2 mi NNW 5.8 mph - N/A   Partly Cloudy
4:00 AM 81 °F - 74 °F 74% 29.82 in 12 mi NW 2.3 mph - -   Haze
4:00 AM 80.6 °F 85.4 °F 73.4 °F 79% 29.80 in 6.2 mi NW 2.3 mph - N/A   Partly Cloudy
5:00 AM 82.4 °F 88.2 °F 73.4 °F 74% 29.83 in 6.2 mi North 4.6 mph - N/A   Partly Cloudy
6:00 AM 82.4 °F 89.5 °F 75.2 °F 79% 29.83 in 6.2 mi North 6.9 mph - N/A   Scattered Clouds
7:00 AM 83 °F - 75 °F 71% 29.88 in 12 mi North 8.1 mph - -   Haze
7:00 AM 82.4 °F 89.5 °F 75.2 °F 79% 29.86 in 6.2 mi North 8.1 mph - N/A   Mostly Cloudy
8:00 AM 84.2 °F 92.3 °F 75.2 °F 74% 29.89 in 6.2 mi NNW 5.8 mph - N/A   Mostly Cloudy
9:00 AM 84.2 °F 92.3 °F 75.2 °F 74% 29.89 in 6.2 mi North 8.1 mph - N/A   Mostly Cloudy
10:00 AM 85 °F - 75 °F 65% 29.91 in 12 mi North 8.1 mph - -   Partly Cloudy
10:00 AM 84.2 °F 92.3 °F 75.2 °F 74% 29.89 in 6.2 mi North 8.1 mph - N/A   Partly Cloudy
11:00 AM 86.0 °F 96.9 °F 77.0 °F 74% 29.89 in 6.2 mi NNW 5.8 mph - N/A   Partly Cloudy
12:00 PM 89.6 °F 104.7 °F 78.8 °F 70% 29.86 in 6.2 mi SE 15.0 mph - N/A   Partly Cloudy
1:00 PM 89 °F - 81 °F 73% 29.84 in 12 mi SE 20.7 mph - -   Haze
1:00 PM 89.6 °F 108.2 °F 80.6 °F 75% 29.83 in 6.2 mi SE 20.7 mph - N/A   Scattered Clouds
2:00 PM 89.6 °F 104.7 °F 78.8 °F 70% 29.80 in 6.2 mi SE 20.7 mph - N/A   Partly Cloudy
3:00 PM 87.8 °F 102.5 °F 78.8 °F 75% 29.80 in 6.2 mi SE 21.9 mph - N/A   Partly Cloudy
4:00 PM 88 °F - 78 °F 67% 29.80 in 12 mi SE 19.6 mph - -   Haze
4:00 PM 87.8 °F 102.5 °F 78.8 °F 75% 29.80 in 6.2 mi SE 19.6 mph - N/A   Partly Cloudy
5:00 PM 87.8 °F 102.5 °F 78.8 °F 75% 29.80 in 6.2 mi SE 20.7 mph - N/A   Partly Cloudy
6:00 PM 86.0 °F 99.3 °F 78.8 °F 79% 29.80 in 6.2 mi SE 17.3 mph - N/A   Partly Cloudy
7:00 PM 86 °F - 80 °F 77% 29.84 in 12 mi SE 15.0 mph - -   Haze
7:00 PM 86.0 °F 101.9 °F 80.6 °F 84% 29.83 in 6.2 mi SE 15.0 mph - N/A   Partly Cloudy
8:00 PM 86.0 °F 95.1 °F 75.2 °F 70% 29.86 in 6.2 mi SE 13.8 mph - N/A   Partly Cloudy
9:00 PM 84.2 °F 94.1 °F 77.0 °F 79% 29.86 in 6.2 mi ESE 13.8 mph - N/A   Partly Cloudy
10:00 PM 84 °F - 76 °F 72% 29.89 in 12 mi SE 12.7 mph - -   Haze
10:00 PM 84.2 °F 94.1 °F 77.0 °F 79% 29.89 in 6.2 mi SE 12.7 mph - N/A   Partly Cloudy
11:00 PM 84.2 °F 92.3 °F 75.2 °F 74% 29.89 in 6.2 mi SE 12.7 mph - N/A   Partly Cloudy